• en France
  • Liste des pays
  • À 7 jours
  • Température de l'eau
  • Carte satellitaire
  • Carte météo
  • Widgets météo
  • user-avatar
    Se connecter

    Météo par heure à Marfinka

    Ce jour, 21 Septembre, Vendredi

    Heure Température Précipitation Vent Pression Humidité
    00:00 +14°C° 0 mm 2 m/s 751 mmHg 91%
    01:00 +14°C° 0 mm 2 m/s 751 mmHg 91%
    02:00 +13°C° 0 mm 2 m/s 752 mmHg 92%
    03:00 +13°C° 0 mm 2 m/s 752 mmHg 92%
    04:00 +13°C° 0 mm 2 m/s 752 mmHg 92%
    05:00 +13°C° 0 mm 2 m/s 753 mmHg 92%
    06:00 +13°C° 0 mm 2 m/s 753 mmHg 92%
    07:00 +14°C° 0 mm 2 m/s 753 mmHg 86%
    08:00 +16°C° 0 mm 2 m/s 754 mmHg 80%
    09:00 +18°C° 0 mm 2 m/s 754 mmHg 72%
    10:00 +19°C° 0 mm 2 m/s 754 mmHg 67%
    11:00 +21°C° 0 mm 2 m/s 754 mmHg 62%
    12:00 +23°C° 0 mm 2 m/s 754 mmHg 57%
    13:00 +24°C° 0 mm 2 m/s 754 mmHg 55%
    14:00 +25°C° 0 mm 2 m/s 754 mmHg 53%
    15:00 +26°C° 0 mm 1 m/s 754 mmHg 49%
    16:00 +25°C° 0 mm 1 m/s 754 mmHg 54%
    17:00 +23°C° 0 mm 1 m/s 754 mmHg 59%
    18:00 +22°C° 0 mm 1 m/s 754 mmHg 64%
    19:00 +21°C° 0 mm 1 m/s 754 mmHg 68%
    20:00 +20°C° 0 mm 1 m/s 754 mmHg 71%
    21:00 +18°C° 0 mm 2 m/s 754 mmHg 74%
    22:00 +18°C° 0 mm 2 m/s 754 mmHg 76%
    23:00 +17°C° 0 mm 2 m/s 754 mmHg 78%

    Demain, 22 Septembre, Samedi

    Heure Température Précipitation Vent Pression Humidité
    00:00 +17°C° 0 mm 2 m/s 754 mmHg 79%
    01:00 +17°C° 0 mm 2 m/s 754 mmHg 81%
    02:00 +16°C° 0 mm 2 m/s 755 mmHg 83%
    03:00 +16°C° 0 mm 2 m/s 755 mmHg 85%
    04:00 +16°C° 0 mm 2 m/s 755 mmHg 86%
    05:00 +15°C° 0 mm 2 m/s 755 mmHg 87%
    06:00 +14°C° 0 mm 3 m/s 755 mmHg 88%
    07:00 +17°C° 0 mm 3 m/s 755 mmHg 81%
    08:00 +18°C° 0 mm 3 m/s 755 mmHg 75%
    09:00 +20°C° 0 mm 4 m/s 754 mmHg 68%
    10:00 +21°C° 0 mm 4 m/s 754 mmHg 63%
    11:00 +23°C° 0 mm 4 m/s 754 mmHg 57%
    12:00 +25°C° 0 mm 4 m/s 754 mmHg 52%
    13:00 +26°C° 0 mm 4 m/s 754 mmHg 51%
    14:00 +26°C° 0 mm 5 m/s 753 mmHg 50%
    15:00 +26°C° 0 mm 5 m/s 753 mmHg 48%
    16:00 +25°C° 0 mm 4 m/s 753 mmHg 54%
    17:00 +23°C° 0 mm 4 m/s 752 mmHg 59%
    18:00 +21°C° 0 mm 3 m/s 752 mmHg 65%
    19:00 +20°C° 0 mm 3 m/s 752 mmHg 66%
    20:00 +20°C° 0 mm 4 m/s 752 mmHg 68%
    21:00 +19°C° 0 mm 4 m/s 752 mmHg 69%
    22:00 +18°C° 0 mm 4 m/s 752 mmHg 69%
    23:00 +18°C° 0 mm 4 m/s 751 mmHg 69%

    Après-demain, 23 Septembre, Dimanche

    Heure Température Précipitation Vent Pression Humidité
    00:00 +18°C° 0 mm 4 m/s 751 mmHg 69%
    01:00 +18°C° 0 mm 4 m/s 751 mmHg 69%
    02:00 +17°C° 0 mm 4 m/s 750 mmHg 70%
    03:00 +16°C° 0 mm 5 m/s 750 mmHg 71%
    04:00 +16°C° 0 mm 5 m/s 749 mmHg 71%
    05:00 +15°C° 0 mm 5 m/s 749 mmHg 72%
    06:00 +15°C° 0 mm 5 m/s 748 mmHg 72%
    07:00 +16°C° 0 mm 6 m/s 748 mmHg 68%
    08:00 +19°C° 0 mm 6 m/s 747 mmHg 64%
    09:00 +20°C° 0 mm 7 m/s 747 mmHg 60%
    10:00 +21°C° 0 mm 7 m/s 747 mmHg 56%
    11:00 +22°C° 0 mm 8 m/s 746 mmHg 52%
    12:00 +24°C° 0 mm 8 m/s 746 mmHg 48%
    13:00 +23°C° 0 mm 8 m/s 746 mmHg 52%
    14:00 +21°C° 0 mm 7 m/s 746 mmHg 56%
    15:00 +20°C° 0 mm 6 m/s 746 mmHg 61%
    16:00 +16°C° 0.6 mm 6 m/s 746 mmHg 68%
    17:00 +14°C° 0.6 mm 6 m/s 746 mmHg 76%
    18:00 +10°C° 0.6 mm 5 m/s 746 mmHg 84%
    19:00 +10°C° 0.3 mm 5 m/s 747 mmHg 85%
    20:00 +11°C° 0.3 mm 4 m/s 747 mmHg 86%
    21:00 +10°C° 0.3 mm 4 m/s 747 mmHg 87%
    22:00 +10°C° 0.6 mm 3 m/s 747 mmHg 88%
    23:00 +10°C° 0.6 mm 3 m/s 748 mmHg 89%

    24 Septembre, Lundi

    Heure Température Précipitation Vent Pression Humidité
    00:00 +10°C° 0.6 mm 2 m/s 748 mmHg 90%
    01:00 +10°C° 0.1 mm 2 m/s 748 mmHg 90%
    02:00 +10°C° 0.1 mm 3 m/s 748 mmHg 91%
    03:00 +10°C° 0.1 mm 3 m/s 748 mmHg 91%
    04:00 +9°C° 0 mm 3 m/s 748 mmHg 92%
    05:00 +9°C° 0 mm 2 m/s 748 mmHg 94%
    06:00 +8°C° 0 mm 2 m/s 748 mmHg 95%
    07:00 +9°C° 0 mm 2 m/s 748 mmHg 89%
    08:00 +10°C° 0 mm 2 m/s 748 mmHg 83%
    09:00 +12°C° 0 mm 2 m/s 748 mmHg 78%
    10:00 +13°C° 0 mm 3 m/s 748 mmHg 70%
    11:00 +14°C° 0 mm 3 m/s 748 mmHg 62%
    12:00 +17°C° 0 mm 4 m/s 748 mmHg 54%
    13:00 +17°C° 0 mm 4 m/s 748 mmHg 52%
    14:00 +17°C° 0 mm 4 m/s 747 mmHg 49%
    15:00 +17°C° 0 mm 3 m/s 747 mmHg 47%
    16:00 +15°C° 0 mm 4 m/s 746 mmHg 51%
    17:00 +14°C° 0 mm 4 m/s 746 mmHg 55%
    18:00 +14°C° 0 mm 4 m/s 745 mmHg 59%
    19:00 +13°C° 0.4 mm 4 m/s 744 mmHg 62%
    20:00 +13°C° 0.4 mm 5 m/s 744 mmHg 65%
    21:00 +11°C° 0.4 mm 6 m/s 743 mmHg 68%
    22:00 +11°C° 1.7 mm 7 m/s 742 mmHg 73%
    23:00 +10°C° 1.7 mm 9 m/s 741 mmHg 78%

    25 Septembre, Mardi

    Heure Température Précipitation Vent Pression Humidité
    00:00 +9°C° 1.7 mm 10 m/s 740 mmHg 82%
    01:00 +9°C° 0.3 mm 10 m/s 739 mmHg 82%
    02:00 +10°C° 0.3 mm 9 m/s 738 mmHg 81%
    03:00 +11°C° 0.3 mm 9 m/s 737 mmHg 81%
    04:00 +10°C° 0 mm 9 m/s 737 mmHg 80%
    05:00 +9°C° 0 mm 8 m/s 736 mmHg 79%
    06:00 +7°C° 0 mm 8 m/s 736 mmHg 78%
    07:00 +7°C° 0 mm 8 m/s 736 mmHg 76%
    08:00 +8°C° 0 mm 9 m/s 735 mmHg 74%
    09:00 +8°C° 0 mm 10 m/s 735 mmHg 73%
    10:00 +8°C° 0.1 mm 10 m/s 735 mmHg 72%
    11:00 +8°C° 0.1 mm 10 m/s 734 mmHg 71%
    12:00 +8°C° 0.1 mm 11 m/s 734 mmHg 70%
    13:00 +8°C° 0.2 mm 10 m/s 734 mmHg 72%
    14:00 +8°C° 0.2 mm 10 m/s 734 mmHg 74%
    15:00 +8°C° 0.2 mm 10 m/s 734 mmHg 76%
    16:00 +7°C° 0.3 mm 9 m/s 735 mmHg 77%
    17:00 +7°C° 0.3 mm 9 m/s 735 mmHg 78%
    18:00 +7°C° 0.3 mm 9 m/s 736 mmHg 80%
    19:00 +6°C° 0.1 mm 9 m/s 737 mmHg 79%
    20:00 +6°C° 0.1 mm 9 m/s 738 mmHg 78%
    21:00 +6°C° 0.1 mm 9 m/s 739 mmHg 77%
    22:00 +6°C° 0 mm 8 m/s 739 mmHg 77%
    23:00 +5°C° 0 mm 8 m/s 740 mmHg 76%

    26 Septembre, Mercredi

    Heure Température Précipitation Vent Pression Humidité
    00:00 +5°C° 0 mm 8 m/s 741 mmHg 75%
    01:00 +5°C° 0 mm 8 m/s 742 mmHg 73%
    02:00 +5°C° 0 mm 8 m/s 743 mmHg 72%
    03:00 +4°C° 0 mm 7 m/s 744 mmHg 70%
    04:00 +4°C° 0 mm 7 m/s 744 mmHg 71%
    05:00 +3°C° 0 mm 7 m/s 745 mmHg 71%
    06:00 +2°C° 0 mm 6 m/s 746 mmHg 72%
    07:00 +3°C° 0 mm 6 m/s 746 mmHg 69%
    08:00 +3°C° 0 mm 7 m/s 747 mmHg 66%
    09:00 +4°C° 0 mm 7 m/s 747 mmHg 62%
    10:00 +5°C° 0 mm 7 m/s 748 mmHg 57%
    11:00 +6°C° 0 mm 7 m/s 748 mmHg 52%
    12:00 +8°C° 0 mm 7 m/s 749 mmHg 47%
    13:00 +9°C° 0 mm 7 m/s 749 mmHg 46%
    14:00 +9°C° 0 mm 7 m/s 750 mmHg 44%
    15:00 +10°C° 0 mm 7 m/s 750 mmHg 43%
    16:00 +9°C° 0 mm 6 m/s 751 mmHg 48%
    17:00 +8°C° 0 mm 5 m/s 751 mmHg 53%
    18:00 +7°C° 0 mm 4 m/s 752 mmHg 58%
    19:00 +6°C° 0 mm 4 m/s 752 mmHg 63%
    20:00 +5°C° 0 mm 4 m/s 753 mmHg 68%
    21:00 +5°C° 0 mm 3 m/s 753 mmHg 74%
    22:00 +4°C° 0 mm 3 m/s 754 mmHg 76%
    23:00 +4°C° 0 mm 3 m/s 754 mmHg 79%
    Voir plus